Location: Bijele Vode
(45.2833°N, 16.2000°E)
Time: 08:15:41
(UTC+00:00)

Lacrosse 5 rocket - Pass Details

Date: 24 January 2021
Orbit: 465 x 630 km, 57.0° (Epoch: 04 March)

Event Time Altitude Azimuth Distance (km) Brightness Sun altitude
Exits shadow 04:55:25 29° 261° (W) 944 2.0 -15.5°
Maximum altitude 04:56:21 33° 231° (SW) 848 1.9 -15.4°
Drops below altitude 10° 04:59:43 10° 165° (SSE) 1,658 4.1 -14.8°
Sets 05:01:56 0° 156° (SSE) 2,514 5.2 -14.4°
